Location: Caltech
(34.1382°N, 118.1253°W)
Time: 00:04:02
(UTC-07:00)

Aureole 2 Rocket - Visible Passes

Search period start: 21 October 2014 00:00
Search period end: 31 October 2014 00:00
Orbit: 349 x 746 km, 73.9° (Epoch: 19 October)

Date Brightness Start Highest point End Pass type
(mag) Time Alt. Az. Time Alt. Az. Time Alt. Az.
28 Oct 5.8 05:19:34 10° NE 05:20:55 12° ENE 05:22:18 10° E visible
28 Oct 4.4 19:12:04 10° SSE 19:12:31 12° SSE 19:12:31 12° SSE visible
29 Oct 5.6 05:13:05 10° NNE 05:15:07 14° ENE 05:17:15 10° E visible
29 Oct 3.4 19:05:57 10° SSE 19:07:54 23° SE 19:07:54 23° SE visible
30 Oct 5.5 05:06:46 10° NNE 05:09:15 17° ENE 05:11:55 10° ESE visible
30 Oct 2.8 18:59:51 10° SSE 19:02:33 30° ESE 19:03:10 27° ENE visible
